Weather reports worldwide

Advertisment
Mona Airfield, United Kingdom (3301): temperature & dewpoint: 14.06.2019 13:00:00 - 20.06.2019 13:00:00 (BST)Mona Airfield, United Kingdom (3301): wind speed & gusts: 14.06.2019 13:00:00 - 20.06.2019 13:00:00 (BST)Mona Airfield, United Kingdom (3301): wind direction: 14.06.2019 13:00:00 - 20.06.2019 13:00:00 (BST)Mona Airfield, United Kingdom (3301): reduced air pressure: 14.06.2019 13:00:00 - 20.06.2019 13:00:00 (BST)Mona Airfield, United Kingdom (3301): visibility: 14.06.2019 13:00:00 - 20.06.2019 13:00:00 (BST)Mona Airfield, United Kingdom (3301): precipitation: 14.06.2019 13:00:00 - 20.06.2019 13:00:00 (BST)
Date & Time tt [°C] td [°C] ff [km/h] ff [kn] fx [km/h] fx [kn] dd ppp [hPa] vv [km] rr [mm]
20.06.2019 13:00:00 14,7 8,9 21 11 - - SW 1012,4 15 0,0
20.06.2019 12:00:00 13,7 7,8 22 12 - - SW 1012,0 16 0,0
20.06.2019 11:00:00 13,2 7,7 24 13 - - WSW 1011,5 14 0,0
20.06.2019 10:00:00 12,5 7,4 18 10 - - WSW 1011,3 15 0,0
20.06.2019 09:00:00 12,9 8,4 18 10 - - W 1010,9 15 0,0
20.06.2019 08:00:00 12,2 9,4 15 8 - - W 1010,5 15 0,0
20.06.2019 07:00:00 11,4 9,0 16 9 - - W 1010,2 15 0,0
20.06.2019 06:00:00 10,9 9,1 13 7 - - W 1009,8 16 0,0
20.06.2019 05:00:00 11,0 9,3 13 7 - - W 1009,6 17 0,0
20.06.2019 04:00:00 11,5 9,9 11 6 - - W 1009,3 16 0,2
20.06.2019 03:00:00 11,7 10,2 15 8 - - WSW 1009,4 4,7 0,2
20.06.2019 02:00:00 11,8 10,1 11 6 - - WSW 1009,3 15 0,0
20.06.2019 01:00:00 12,6 10,1 13 7 - - WSW 1009,1 19 0,0
20.06.2019 00:00:00 12,7 10,1 13 7 - - SW 1009,1 18 0,0
19.06.2019 23:00:00 12,8 10,5 16 9 - - WSW 1008,9 14 0,0
19.06.2019 22:00:00 12,0 10,8 16 9 - - SW 1009,0 10 0,0
19.06.2019 21:00:00 13,0 10,6 22 12 - - SW 1008,8 13 0,0
19.06.2019 20:00:00 13,6 9,6 22 12 - - SW 1008,9 18 0,0
19.06.2019 19:00:00 15,2 9,2 24 13 - - SW 1009,0 19 0,0
19.06.2019 18:00:00 16,5 6,9 21 11 - - SW 1008,7 23 0,0
19.06.2019 17:00:00 17,3 7,2 16 9 - - SW 1008,9 20 0,0
19.06.2019 16:00:00 18,0 6,7 15 8 - - WSW 1009,0 20 0,0
19.06.2019 15:00:00 17,8 8,6 13 7 - - W 1009,2 19 0,0
19.06.2019 14:00:00 17,1 8,3 15 8 - - WNW 1009,4 19 0,0
19.06.2019 13:00:00 16,4 9,5 13 7 - - WNW 1009,3 19 0,0
19.06.2019 12:00:00 16,7 9,3 11 6 - - WNW 1009,1 19 0,0
19.06.2019 11:00:00 15,6 10,9 13 7 - - NW 1009,1 14 0,0
19.06.2019 10:00:00 15,9 12,4 11 6 - - WNW 1009,0 11 0,0
19.06.2019 09:00:00 14,0 11,8 8 4 - - W 1009,0 8 0,0
19.06.2019 08:00:00 12,6 11,2 15 8 - - SW 1009,0 8 0,0
19.06.2019 07:00:00 11,8 10,9 11 6 - - SSW 1009,3 9 0,0
19.06.2019 06:00:00 9,9 8,9 5 3 - - SW 1009,2 11 0,0
19.06.2019 05:00:00 10,5 9,0 5 3 - - SW 1009,2 14 0,0
19.06.2019 04:00:00 10,9 9,8 8 4 - - S 1009,4 13 0,0
19.06.2019 03:00:00 10,5 9,5 5 3 - - S 1009,8 12 0,0
19.06.2019 02:00:00 10,0 9,0 5 3 - - SSW 1010,0 9 0,0
19.06.2019 01:00:00 10,5 9,1 5 3 - - SW 1010,6 9 0,0
19.06.2019 00:00:00 11,8 10,0 8 4 - - WSW 1011,3 11 0,0
18.06.2019 23:00:00 12,0 10,0 8 4 - - SSW 1011,4 12 0,0
18.06.2019 22:00:00 12,7 10,0 5 3 - - SSW 1011,7 13 0,0
18.06.2019 21:00:00 13,3 9,5 5 3 - - WSW 1011,6 14 0,0
18.06.2019 20:00:00 14,4 8,2 8 4 - - WSW 1011,6 17 0,0
18.06.2019 19:00:00 15,9 10,3 5 3 - - SW 1011,7 15 0,0
18.06.2019 18:00:00 16,4 9,7 9 5 - - WSW 1011,9 16 0,0
18.06.2019 17:00:00 17,0 10,5 13 7 - - SW 1012,2 16 0,0
18.06.2019 16:00:00 16,5 9,8 13 7 - - SW 1012,6 17 0,0
18.06.2019 15:00:00 16,4 10,3 16 9 - - WSW 1013,1 15 0,0
18.06.2019 14:00:00 15,8 9,5 16 9 - - WSW 1013,4 15 0,0
18.06.2019 13:00:00 16,6 8,3 16 9 - - SW 1013,6 19 0,0
18.06.2019 12:00:00 14,9 10,5 15 8 - - SW 1013,4 13 0,0
18.06.2019 11:00:00 14,6 11,1 21 11 - - SW 1013,6 13 0,0
18.06.2019 10:00:00 13,4 11,4 18 10 - - SW 1013,8 11 0,0
18.06.2019 09:00:00 12,8 11,2 18 10 - - SW 1014,0 10 0,0
18.06.2019 08:00:00 12,4 11,1 21 11 - - SSW 1014,0 10 0,0
18.06.2019 07:00:00 12,1 11,0 16 9 - - SSW 1013,7 9 0,0
18.06.2019 06:00:00 12,0 11,0 21 11 - - SSW 1013,5 9 0,0
18.06.2019 05:00:00 12,1 11,3 16 9 - - SSW 1013,6 9 0,0
18.06.2019 04:00:00 12,2 11,2 22 12 - - SSW 1013,7 9 0,0
18.06.2019 03:00:00 12,3 11,3 21 11 - - S 1013,8 10 0,0
18.06.2019 02:00:00 12,4 11,4 26 14 - - S 1014,1 9 0,0
18.06.2019 01:00:00 12,2 11,1 21 11 - - S 1014,3 9 0,0
18.06.2019 00:00:00 12,2 11,2 22 12 - - S 1014,3 9 0,0
17.06.2019 23:00:00 12,2 11,0 21 11 - - S 1014,4 10 0,0
17.06.2019 22:00:00 12,3 10,7 29 16 - - SSW 1013,9 11 0,0
17.06.2019 21:00:00 12,7 10,5 26 14 46 25 SSW 1013,8 12 0,0
17.06.2019 20:00:00 13,7 10,7 35 19 48 26 SSW 1013,5 12 0,0
17.06.2019 19:00:00 14,5 10,9 35 19 52 28 SSW 1013,3 13 0,0
17.06.2019 18:00:00 15,3 11,4 41 22 55 30 SSW 1013,4 14 0,0
17.06.2019 17:00:00 15,3 10,4 42 23 57 31 SSW 1013,3 16 0,0
17.06.2019 16:00:00 16,4 11,1 42 23 57 31 SW 1013,1 18 0,0
17.06.2019 15:00:00 15,7 11,8 42 23 59 32 SW 1013,3 14 0,0
17.06.2019 14:00:00 16,9 12,7 44 24 59 32 SSW 1013,4 16 0,0
17.06.2019 13:00:00 15,3 11,9 42 23 59 32 SSW 1013,2 14 0,0
17.06.2019 12:00:00 15,0 11,8 39 21 55 30 SSW 1013,2 15 0,0
17.06.2019 11:00:00 15,4 12,1 37 20 54 29 SSW 1012,9 13 0,0
17.06.2019 10:00:00 14,2 11,3 39 21 54 29 SSW 1012,8 14 0,0
17.06.2019 09:00:00 13,9 11,7 39 21 52 28 SSW 1012,5 13 0,0
17.06.2019 08:00:00 13,0 11,2 37 20 50 27 SSW 1012,0 13 0,0
17.06.2019 07:00:00 12,8 11,6 34 18 - - SSW 1011,8 14 0,0
17.06.2019 06:00:00 12,2 11,2 34 18 46 25 SSW 1011,8 12 0,0
17.06.2019 05:00:00 12,0 11,0 29 16 - - SSW 1011,7 10 0,0
17.06.2019 04:00:00 11,6 10,7 31 17 - - SSW 1011,5 11 0,0
17.06.2019 03:00:00 11,9 11,0 34 18 46 25 SSW 1011,4 11 0,0
17.06.2019 02:00:00 11,7 10,6 34 18 59 32 SSW 1011,2 12 0,0
17.06.2019 01:00:00 12,3 11,4 37 20 50 27 SSW 1011,0 12 0,0
17.06.2019 00:00:00 12,7 12,0 39 21 59 32 SSW 1010,8 9 0,0
16.06.2019 23:00:00 12,8 12,2 41 22 61 33 SSW 1010,4 6 0,0
16.06.2019 22:00:00 12,9 12,1 48 26 65 35 SSW 1010,3 8 0,2
16.06.2019 21:00:00 12,8 12,1 50 27 65 35 S 1010,0 3,9 1,4
16.06.2019 20:00:00 13,5 12,2 46 25 65 35 SSW 1010,1 11 0,0
16.06.2019 19:00:00 13,3 12,7 37 20 52 28 SSW 1010,2 9 0,6
16.06.2019 18:00:00 13,0 12,2 31 17 50 27 S 1010,4 16 0,8
16.06.2019 17:00:00 13,3 11,6 42 23 59 32 SSW 1011,0 2,0 0,0
16.06.2019 16:00:00 15,6 11,7 46 25 67 36 SSW 1011,2 13 0,0
16.06.2019 15:00:00 15,6 9,5 50 27 70 38 SSW 1011,1 15 0,0
16.06.2019 14:00:00 16,2 8,3 46 25 65 35 SSW 1011,0 16 0,0
16.06.2019 13:00:00 16,2 12,9 37 20 50 27 SSW 1010,7 12 0,0
16.06.2019 12:00:00 14,2 11,8 28 15 - - S 1010,6 6 0,2
16.06.2019 11:00:00 14,7 9,5 26 14 - - S 1010,8 14 0,0
16.06.2019 10:00:00 14,4 10,0 26 14 - - S 1010,9 13 0,0
16.06.2019 09:00:00 13,0 10,0 21 11 - - SSW 1010,9 13 0,0
16.06.2019 08:00:00 12,7 10,0 26 14 - - SSW 1010,7 13 0,0
16.06.2019 07:00:00 11,6 10,1 13 7 - - S 1010,5 12 0,0
16.06.2019 06:00:00 11,2 9,8 15 8 - - S 1010,4 13 0,0
16.06.2019 05:00:00 9,5 8,8 11 6 - - SSW 1010,6 12 0,0
16.06.2019 04:00:00 9,7 9,0 16 9 - - SSW 1010,7 12 0,0
16.06.2019 03:00:00 9,2 8,1 13 7 - - SSW 1010,9 12 0,0
16.06.2019 02:00:00 9,9 8,6 16 9 - - SW 1010,9 13 0,0
16.06.2019 01:00:00 10,8 9,1 18 10 - - SW 1011,0 16 0,0
16.06.2019 00:00:00 9,3 7,9 13 7 - - SSW 1011,1 15 0,0
15.06.2019 23:00:00 9,9 7,9 18 10 - - SSW 1011,0 17 0,0
15.06.2019 22:00:00 10,0 7,3 15 8 - - SSW 1010,9 18 0,0
15.06.2019 21:00:00 11,2 7,5 21 11 - - SSW 1010,6 18 0,0
15.06.2019 20:00:00 11,8 7,5 24 13 - - SSW 1010,4 20 0,0
15.06.2019 19:00:00 13,0 7,0 34 18 - - SSW 1010,4 22 0,0
15.06.2019 18:00:00 13,6 7,2 29 16 - - SW 1010,1 19 0,0
15.06.2019 17:00:00 14,8 7,3 29 16 - - SW 1009,8 21 0,0
15.06.2019 16:00:00 14,7 5,9 34 18 - - SW 1009,7 23 0,0
15.06.2019 15:00:00 14,1 6,2 28 15 - - SSW 1009,5 24 0,0
15.06.2019 14:00:00 14,8 7,4 31 17 48 26 SW 1009,4 21 0,0
15.06.2019 13:00:00 14,2 8,0 34 18 - - SSW 1009,3 20 0,0
15.06.2019 12:00:00 13,2 9,5 34 18 46 25 SW 1008,5 13 0,0
15.06.2019 11:00:00 13,2 9,6 37 20 50 27 SSW 1007,8 15 0,0
15.06.2019 10:00:00 12,5 9,8 35 19 50 27 SSW 1007,3 16 0,0
15.06.2019 09:00:00 11,3 9,2 31 17 52 28 S 1006,7 16 0,0
15.06.2019 08:00:00 11,0 9,0 34 18 50 27 S 1006,3 15 0,0
15.06.2019 07:00:00 10,7 9,1 16 9 - - SE 1005,5 10 0,0
15.06.2019 06:00:00 11,4 8,2 22 12 - - SSE 1005,7 13 0,0
15.06.2019 05:00:00 10,8 8,2 15 8 - - ESE 1006,3 11 0,0
15.06.2019 04:00:00 10,8 9,0 16 9 - - SSE 1006,7 12 0,2
15.06.2019 03:00:00 10,6 9,3 11 6 - - SSE 1007,2 7 0,8
15.06.2019 02:00:00 11,2 9,6 15 8 - - SSE 1007,4 7 0,0
15.06.2019 01:00:00 11,6 9,5 18 10 - - S 1007,4 9 0,0
15.06.2019 00:00:00 11,6 8,9 22 12 - - S 1007,5 11 0,0
14.06.2019 23:00:00 12,1 9,0 31 17 46 25 SSW 1007,7 12 0,0
14.06.2019 22:00:00 12,2 9,5 29 16 - - S 1007,6 11 0,0
14.06.2019 21:00:00 12,9 9,8 21 11 - - S 1007,3 12 0,0
14.06.2019 20:00:00 13,3 9,5 26 14 - - S 1007,2 14 0,0
14.06.2019 19:00:00 13,4 9,3 26 14 - - S 1007,1 15 0,0
14.06.2019 18:00:00 13,8 10,1 24 13 - - S 1007,1 14 0,0
14.06.2019 17:00:00 14,2 8,3 28 15 - - SSW 1006,9 15 0,0
14.06.2019 16:00:00 14,6 9,5 28 15 - - SSW 1006,8 16 0,0
14.06.2019 15:00:00 14,1 8,7 29 16 - - S 1006,8 17 0,0
14.06.2019 14:00:00 13,4 8,2 26 14 - - S 1006,7 16 0,0
14.06.2019 13:00:00 13,4 8,5 26 14 - - SSW 1006,7 17 0,0

tt = temperature
td = dewpoint
ff = wind speed
fx = gusts
dd = wind direction
ppp = reduced air pressure
vv = visibility
rr = precipitation

Next stations